Погода в Славянке

Украина / Днепропетровская область     48°23′58″N   36°42′28″E
темп.,
°C
ветер,
м/с
пор.,
м/с
влажн.,
%
обл.,
%
осадки,
мм/ч
давл.,
гПа
погр.,
м
11 мая, вт
вт1100:00+8ссз91692100 2.9 1012966
03:00+9с81593100 3.4 1012920
06:00+8св41091100 0.6 1013597
09:00+8св5988100 1.3 1013675
12:00+10св71066100 0.1 10141418
15:00+11ссв81164100 0.2 10141838
18:00+8св71082100 0.3 10151059
21:00+8всв5990100 0.8 1015686
12 мая, ср
ср1200:00+7всв7119195 0.2 1016610
03:00+7всв71289100 0.4 1016574
06:00+7в61088100 0.1 1016735
09:00+8в5991100 0.9 10161034
12:00+10вюв568080 1.4 1015795
15:00+14ююв676197 3.1 10141537
18:00+13ююз586547 1.5 10141327
21:00+9ююв5109490 3.4 1015374
13 мая, чт
чт1300:00+8юв36976 0.4 1015123
03:00+7юв22961 0.4 101523
06:00+8в23945 0.0 101675
09:00+12в34826 0.1 1015352
12:00+19юв465942 0.0 10141485
15:00+22юв564891 0.0 10132110
18:00+21юв365977 0.0 1013330
21:00+16вюв487959 0.0 1013116
14 мая, пт
пт1400:00+15вюв4108761 0.0 1012196
03:00+14вюв41094100 0.0 1012189
06:00+14вюв4119113 1.1 1011273
09:00+20ююв567213 1.3 1011553
12:00+25ююв355382 0.0 10111111
15:00+27ююв4543100 0.0 10111652
18:00+26ююв2457100 0.0 1010119
21:00+22ю5964100 0.0 1011244
15 мая, сб
сб1500:00+19ююз111765100 0.4 1011573
03:00+15ссз2285100 1.1 101016
06:00+15ю34850 0.0 101180
09:00+20юз45675 0.0 1012553
12:00+23юз6750100 0.0 10121434
15:00+23юз78500 0.0 10121785
18:00
21:00+16зюз36770 0.0 1013109